Home   Weather   Basel   Past weeks

Flag for Switzerland Past Weather in Basel, Basel-Stadt, Switzerland — Yesterday and Last 2 Weeks

Now
39 °F

Sprinkles. Overcast.


Feels Like: 31 °F
Forecast: 38 / 48 °F
Wind: 16 mph from Southwest

Location: Bale-Mulhouse

Current Time: Feb 28, 2017 at 3:40:36 pm

Latest Report: Feb 28, 2017 at 3:00 pm


Visibility: 5 mi

Pressure: 29.44 "Hg

Humidity: 90%

Dew Point: 37 °F

Location of BaselLocation

Past Weather in Basel — Graph

°F

Basel Temperature Yesterday

Maximum temperature yesterday: 61 °F (at 3:00 pm)
Minimum temperature yesterday: 33 °F (at 6:00 am)
Average temperature yesterday: 48 °F

High & Low Weather Summary for the Past Weeks

 TemperatureHumidityPressure
High68 °F (Feb 23, 3:00 pm)100% (Feb 18, 3:00 am)30.62 "Hg (Feb 18, 3:00 am)
Low28 °F (Feb 15, 4:00 am)26% (Feb 23, 2:00 pm)29.38 "Hg (Feb 28, 2:00 pm)
Average44 °F77%30.18 "Hg
* Reported Feb 13 3:00 pm — Feb 28 2:00 pm, Basel, Weather by CustomWeather, © 2017

Note: Actual official high and low records may vary slightly from our data, if they occured in-between our weather recording intervals... More about our weather records

Advertising

Basel Weather History for the Previous 24 Hours

Scroll right to see more
 ConditionsComfort  
Time TempWeatherWind HumidityBarometerVisibility
2:00 pm
Tue, Feb 28
45 °FSprinkles. Overcast.15 mph80%29.38 "Hg12 mi
1:00 pm43 °FSprinkles. Overcast.7 mph87%29.41 "Hg12 mi
12:00 pm41 °FOvercast.9 mph89%29.44 "Hg31 mi
11:00 am41 °FOvercast.7 mph86%29.50 "Hg31 mi
10:00 am40 °FOvercast.9 mph88%29.57 "Hg31 mi
9:00 am39 °FOvercast.5 mph90%29.61 "Hg31 mi
8:00 am39 °FOvercast.8 mph91%29.62 "Hg19 mi
7:00 am39 °FOvercast.8 mph90%29.63 "Hg19 mi
6:00 am37 °FLight rain. Overcast.7 mph91%29.64 "Hg9 mi
5:00 am37 °FRain. Overcast.6 mph92%29.65 "Hg7 mi
4:00 am36 °FLight snow. Overcast.5 mph93%29.63 "Hg4 mi
3:00 am39 °FHeavy rain. Overcast.12 mph90%29.62 "Hg8 mi
2:00 am43 °FHeavy rain. Overcast.15 mph90%29.56 "Hg2 mi
1:00 am46 °FOvercast.7 mph83%29.50 "Hg37 mi
12:00 am47 °FOvercast.7 mph78%29.53 "Hg19 mi
11:00 pm
Mon, Feb 27
48 °FOvercast.18 mph74%29.57 "Hg19 mi
10:00 pm60 °FOvercast.16 mph38%29.50 "Hg12 mi
9:00 pm60 °FOvercast.18 mph38%29.50 "Hg31 mi
8:00 pm60 °FOvercast.18 mph37%29.50 "Hg31 mi
7:00 pm60 °FOvercast.12 mph37%29.54 "Hg31 mi
6:00 pm56 °FOvercast.3 mph49%29.57 "Hg31 mi
5:00 pm60 °FScattered clouds.3 mph44%29.58 "Hg31 mi
4:00 pm61 °FScattered clouds.2 mph43%29.61 "Hg31 mi
3:00 pm61 °FScattered clouds.1 mph42%29.63 "Hg31 mi
Weather by CustomWeather, © 2017

See weather overviewHow to use our weather pages